Reflectivity
-20 -10 11 -3 3 1 22 39 27 32 24 -2 -1 25 32 9 15 20 7 -20 -20 -20 -20 -5 10 -4 -20 -20 -20 -20 -7 -4 8 -14 -17 -7 -20 -20 -20 -20 -20 -20 -20
-20 -20 -20 -15 -7 -20 -20 4 35 37 35 23 6 15 14 14 6 12 9 28 14 17 15 12 -14 4 9 -20 -20 17 7 -1 18 19 -20 -20 -20 -20 -20 -20 -20 -20 -20
-1 -19 -20 -19 -20 -20 -20 -20 15 29 24 -13 -20 17 9 10 28 28 -1 30 10 20 11 25 13 29 15 26 13 21 20 24 30 27 -3 -12 -20 -20 -20 -20 -20 23 6
13 -2 -16 -19 -8 -1 5 -15 -20 -11 22 26 30 25 22 31 19 -7 -16 -15 -5 8 14 28 19 18 2 23 19 -1 -14 7 26 -5 -19 -20 -20 -20 -19 2 10 -20 -20
5 19 14 11 -2 -20 -3 1 8 -2 -13 -8 19 16 24 29 11 3 19 15 16 18 -3 14 29 -2 22 23 9 -16 -8 -14 -12 -3 29 5 -20 20 13 29 28 -20 -6
-8 -11 15 16 22 13 17 5 -2 -7 8 9 10 4 -10 8 18 13 15 12 -20 15 13 15 1 16 26 18 18 20 14 15 25 19 34 23 -19 -20 -12 -19 -16 -19 -18
-16 -7 -13 -11 -1 15 9 -4 11 15 20 -1 -11 -7 3 -2 11 -5 11 -12 -2 -2 1 -0 11 6 -20 13 5 24 10 13 14 6 2 22 30 20 22 -4 8 22 7
-18 -20 -13 -2 -5 -9 -1 6 -17 8 14 6 14 11 17 7 2 1 -3 -13 -14 2 -10 14 -7 -20 -3 26 10 -19 4 10 16 11 18 -14 -14 -20 4 6 18 24 12
-19 -20 -20 -20 -8 -20 -20 -16 -1 -13 -18 -15 2 -13 -8 10 -1 3 -18 -18 -20 -20 -20 -20 -20 -20 -16 5 -20 -20 -20 -20 -20 -20 -20 2 -15 -20 -20 -20 2 15 23
-20 -20 -20 -20 -20 -20 -20 -20 -20 -7 -5 -3 -14 2 1 -19 6 13 11 17 -1 -19 -6 -5 15 13 -7 -20 -20 -20 -20 8 2 -3 -8 -16 14 22 7 24 28 7 12
-20 -20 -20 -20 -20 -20 -20 -20 -20 -20 -20 -18 -15 -11 1 -6 -5 -19 -13 7 5 -2 -2 23 20 -4 -20 -20 3 -20 5 4 6 -15 -3 -4 19 16 2 1 -3 -2 12
-20 -20 -20 -20 -20 -20 -20 -20 -20 -20 -20 -20 -20 -20 -20 -18 -12 -9 -8 -20 -20 -14 -15 -18 -10 -18 -1 1 8 11 -2 9 -20 -5 -9 -17 1 -11 -10 -20 -20 -0 9
-20 -20 -20 -20 -20 -20 -20 -20 -20 -20 -20 -20 -20 -20 -9 -20 -4 -19 -20 -0 1 -5 -17 -1 9 -1 -16 -13 -20 -19 2 1 -13 -5 -16 -8 -20 -20 -20 -20 1 -20 -20
-20 -20 -20 -20 -20 -20 -20 -8 -20 -20 -4 1 -19 -19 -20 -20 -4 -20 -20 -7 -20 -20 -20 -20 -20 -20 -12 -11 -19 -14 -20 -20 -13 -2 -1 -17 -20 -20 -20 -20 -7 6 2
-20 -20 -20 -20 -20 -15 -20 -17 -20 -20 -7 -20 -20 -20 -19 -20 -20 -20 -20 -20 -20 -20 -20 -20 -20 -9 -13 -20 -20 -7 -3 4 14 9 -2 -20 -20 -20 -19 -11 -20 -20 -14
-20 -20 -12 -10 -20 -20 -20 -20 5 2 8 4 -4 -20 -20 -20 -20 -20 -20 -20 -19 -13 -6 -20 -20 -20 -20 -16 -5 -3 10 -0 -9 1 12 -20 -20 -20 -20 -20 -20 -0 5
-12 -20 -20 0 8 -15 -20 -20 -20 -9 -19 -20 2 -1 -20 -2 -20 -20 -20 -5 2 2 -14 -20 -20 -20 -9 10 -12 -15 8 -8 10 14 -20 -20 -20 -20 -3 -20 -15 -1 9
-20 14 -7 -20 -20 -2 -20 -19 -12 -14 -13 -18 -20 -20 -20 -20 -19 -17 -18 8 -8 -5 -11 -2 -15 -18 -20 -14 7 -15 6 -19 17 14 -20 -20 -20 -17 -20 10 -15 -19 -16
-20 -6 -2 -20 -14 3 -9 -12 -19 -14 -20 -7 -20 -20 -20 -15 -9 -20 -20 -20 -7 -10 -8 -13 -13 -10 -3 -4 -18 -11 3 -14 17 16 -3 -20 -20 -13 -20 -9 -10 5 -1
5 5 6 -1 -16 -20 -20 -20 -19 -12 -17 -9 -8 -13 -6 -4 -7 -19 -20 -9 -12 -14 -10 -6 -9 -4 -6 -8 -4 -3 0 15 16 -6 -14 -12 -20 -19 6 -11 -16 -7 8
-9 -20 3 -17 -14 -16 -20 -17 -16 -16 -5 -19 -19 3 2 5 -5 -1 -4 -1 7 8 -9 -5 -2 -3 1 5 -0 -0 1 20 18 22 16 12 -19 -20 -9 -12 5 0 -17
-17 4 -15 -4 -19 -10 -18 -19 -17 -18 -9 -3 1 -4 -20 -15 1 1 2 -1 -10 -5 -2 18 12 10 10 7 10 16 23 25 24 21 -7 -20 -12 -7 -5 -5 -11 -15 3
-2 -20 -9 -4 -9 -20 -9 -20 -19 -3 -8 1 -2 -6 -8 -8 -9 -13 -17 -15 -1 -4 12 19 15 20 15 6 17 15 24 22 28 26 -6 -14 -10 -5 -7 -19 -19 -4 2
-20 -9 1 -5 -20 -11 -5 1 -5 -4 -6 -3 -1 -1 -3 -4 -2 -13 1 -20 -13 4 3 9 9 19 5 20 21 24 25 33 35 34 3 -11 -9 -1 -18 -19 -18 -16 -19
-6 2 1 7 -3 -3 -2 -6 1 3 0 -0 -1 0 -1 -6 -3 -1 -9 -11 -7 10 -7 6 18 23 26 23 30 26 23 35 35 24 -2 -9 -12 -20 -20 -20 -19 -18 -20
5 6 -5 1 -0 -2 1 3 5 4 3 -1 1 -2 -7 5 -0 -2 -11 -0 17 15 9 14 8 14 19 19 26 28 32 32 25 24 -3 -15 -20 -20 -20 -20 -20 -20 -9
Wind_Speed
16 14 14 14 13 13 10 11 13 13 11 13 14 13 12 14 11 7 11 12 12 12 12 13 15 13 11 10 8 9 9 8 11 8 4 3 4 6 4 3 3 3 3
13 14 13 13 13 14 14 13 13 13 13 11 13 12 10 11 11 9 10 9 8 9 14 14 15 9 13 13 10 11 9 9 8 12 5 2 4 5 3 5 3 3 4
12 12 12 12 13 13 14 14 12 12 12 13 10 11 12 8 6 9 7 10 7 9 8 8 7 7 12 10 8 7 7 7 7 6 7 4 3 2 3 3 2 2 3
9 8 11 10 9 8 9 10 12 13 12 12 10 10 9 10 9 10 12 11 8 9 7 7 9 7 6 7 6 6 6 7 5 6 5 5 3 2 2 3 2 2 2
5 2 5 7 10 9 11 9 10 9 10 12 11 9 9 7 4 6 8 7 10 10 7 8 9 6 12 9 3 6 7 5 8 8 10 2 2 2 4 3 2 2 1
7 5 6 6 5 6 9 9 10 11 11 10 11 9 10 8 10 9 7 8 10 11 10 6 6 7 9 13 9 11 8 7 6 6 8 5 4 4 4 4 4 3 3
8 10 10 7 6 6 5 6 8 10 9 8 7 9 8 7 7 6 7 7 9 10 11 9 9 6 3 3 8 5 7 13 9 4 6 5 4 3 2 5 5 4 3
11 12 13 13 13 7 6 5 5 6 8 9 10 8 9 8 12 15 13 7 8 9 9 11 10 8 5 6 7 5 6 6 3 3 5 4 3 3 3 2 2 5 4
13 12 12 13 13 12 9 5 4 7 8 7 8 10 11 9 10 10 11 7 8 7 6 7 10 10 4 2 3 5 6 6 1 2 1 3 9 7 6 4 3 3 2
13 13 12 12 11 12 11 11 10 11 12 11 12 11 13 12 13 13 10 8 10 8 9 10 12 10 10 7 4 3 5 4 4 4 3 1 2 4 4 3 5 3 3
12 11 11 11 11 9 9 9 11 11 11 11 12 10 10 11 11 13 10 8 8 7 7 6 7 9 9 10 8 5 4 3 6 4 3 3 2 4 4 2 2 3 4
12 13 13 12 10 8 9 10 13 13 13 13 13 10 7 7 9 9 11 10 10 8 8 7 7 12 15 15 8 9 10 6 5 3 1 2 1 1 2 2 4 3 2
13 13 13 13 10 10 12 11 10 9 8 10 9 10 9 7 7 12 12 12 10 5 6 9 14 15 13 10 12 11 4 3 4 2 3 2 3 3 3 3 3 5 6
13 14 13 10 11 11 10 8 9 9 9 9 9 10 10 9 9 8 7 7 8 8 8 8 9 12 13 11 8 8 5 5 5 3 1 2 4 3 2 1 2 2 4
11 12 12 9 11 12 9 8 9 10 10 11 11 10 12 11 10 14 14 11 10 11 12 9 8 8 8 8 7 7 4 4 4 3 2 3 3 4 3 2 3 1 3
11 10 8 8 9 8 9 10 11 15 18 19 19 16 12 18 23 24 25 24 23 20 11 10 10 9 9 9 6 7 5 6 5 5 4 4 6 6 5 4 4 4 7
12 13 10 10 9 9 9 10 11 10 14 16 18 20 22 22 24 23 23 23 22 17 10 10 10 9 9 9 8 7 8 6 6 7 6 6 6 6 7 6 6 6 7
12 11 9 8 10 9 9 10 10 11 11 10 11 14 16 20 21 20 18 16 9 9 9 10 10 9 9 9 8 8 7 5 6 6 6 7 7 8 7 7 7 8 9
12 8 9 10 9 9 9 10 10 10 11 11 11 12 11 14 16 16 16 8 10 10 9 9 9 8 8 8 9 8 6 6 6 7 7 7 7 8 8 8 8 10 11
9 11 10 9 9 8 9 10 10 10 11 11 10 11 10 10 9 9 8 8 8 9 10 10 9 8 7 8 8 7 6 6 7 7 8 7 8 8 9 10 9 10 7
8 10 12 9 9 9 9 10 10 10 10 11 11 10 14 10 10 9 9 8 9 10 10 10 9 8 7 8 8 7 8 7 7 8 8 8 8 8 8 9 9 9 10
8 10 10 10 9 9 9 10 10 11 11 12 11 11 15 9 9 9 9 9 9 9 9 10 8 7 6 7 7 7 7 7 7 8 9 9 9 9 9 10 10 10 10
9 10 10 9 9 12 10 10 10 11 11 11 11 11 10 10 10 10 10 10 8 9 9 8 7 6 6 7 5 7 7 8 8 10 11 10 10 10 10 11 12 11 10
9 9 10 10 8 10 10 11 11 12 12 11 10 10 10 10 10 11 10 9 9 9 8 7 6 6 4 3 4 4 6 7 7 9 13 12 11 12 12 11 11 13 12
9 9 9 9 9 9 10 11 11 11 11 10 10 10 10 10 11 10 10 8 9 8 8 6 2 2 5 6 7 8 10 13 11 13 10 13 14 16 13 12 13 12 14
9 9 9 9 9 9 10 11 11 11 10 10 10 9 9 10 9 9 9 9 7 7 7 4 2 2 6 6 9 12 13 15 15 16 12 12 13 13 12 15 18 12 14
Wind_Direction
10 16 15 17 18 27 15 10 14 7 19 26 15 1 2 16 355 285 238 232 231 235 233 231 231 228 232 234 232 232 225 221 239 247 247 227 185 199 219 203 142 164 140
9 7 12 11 10 8 12 17 8 15 340 17 26 359 0 5 13 8 359 8 338 249 237 235 237 231 232 235 236 235 235 230 229 244 229 262 237 224 156 143 131 116 127
3 5 5 8 7 10 3 360 359 3 359 356 28 6 353 351 342 356 12 334 7 345 348 334 335 302 256 245 234 234 230 241 239 234 248 232 209 122 98 80 134 84 62
354 3 360 358 360 5 2 353 0 4 355 344 354 350 2 338 359 350 6 347 340 339 327 317 322 320 322 331 309 252 235 242 242 236 243 242 189 130 159 185 246 89 96
332 35 14 0 353 2 355 357 359 357 350 344 348 341 359 340 355 359 356 331 0 316 302 325 280 350 298 285 279 310 324 279 249 244 252 194 192 188 201 223 212 111 81
5 339 29 351 358 3 346 350 352 350 337 339 332 341 337 332 339 351 346 342 350 308 313 298 294 286 274 288 296 258 252 281 287 290 267 249 224 197 159 173 141 132 239
350 9 2 353 347 323 323 334 347 334 323 323 328 320 310 310 350 16 341 330 319 301 310 316 301 294 340 306 254 261 248 250 238 296 290 294 331 2 193 164 185 171 184
17 3 356 348 345 329 356 353 321 318 328 327 326 324 329 332 342 333 320 311 304 302 304 291 298 312 329 313 301 323 308 295 327 261 268 309 347 332 317 255 155 103 61
0 355 348 338 337 337 342 334 304 331 322 324 330 332 328 315 320 342 343 319 305 297 298 320 320 310 235 43 356 341 316 301 356 328 285 328 318 280 206 116 118 125 150
343 339 334 333 331 337 340 339 340 335 336 330 323 330 322 326 331 341 10 342 325 327 338 333 317 352 17 22 16 6 309 271 313 326 309 270 292 277 105 62 157 177 126
338 329 325 318 329 335 332 333 331 327 320 320 318 314 308 311 318 323 335 329 309 313 304 299 288 337 8 354 345 313 235 280 274 244 219 182 44 35 47 55 80 129 143
330 319 319 330 326 330 341 333 322 321 318 316 313 308 306 305 292 284 278 273 276 279 292 293 292 295 313 314 303 269 273 275 253 239 51 71 76 39 51 28 54 95 145
323 323 331 324 343 345 335 321 318 310 303 307 312 312 313 321 310 304 300 291 291 304 305 297 290 288 283 283 288 276 227 204 250 242 195 162 129 140 120 94 71 84 62
322 326 320 333 336 329 319 312 316 310 307 306 304 304 305 303 301 299 296 302 301 294 289 284 286 286 275 266 274 259 236 205 214 230 194 97 120 135 143 146 98 111 97
323 317 321 322 320 317 308 303 299 294 291 299 300 301 303 299 294 289 289 290 288 285 290 286 285 282 280 279 273 263 211 202 186 155 162 162 155 150 132 119 140 112 117
320 318 312 313 310 302 306 303 277 268 276 276 276 275 286 280 285 283 283 281 278 277 277 279 280 280 273 273 264 267 232 201 187 159 174 176 158 155 144 137 129 138 125
318 317 318 310 312 315 311 310 309 303 286 279 277 278 281 280 283 283 278 277 279 277 264 264 266 268 271 264 260 253 252 221 180 169 167 168 152 147 148 142 136 127 120
319 313 309 311 314 308 309 307 305 306 308 309 298 285 288 286 288 288 286 285 276 245 248 260 261 256 253 253 251 249 247 192 177 165 160 165 155 151 149 146 146 137 138
318 308 311 311 309 301 305 302 298 299 300 302 304 299 293 288 287 287 288 281 282 278 268 261 256 247 244 235 245 249 216 189 175 166 160 156 155 156 154 144 138 147 140
311 305 303 302 308 301 310 303 302 302 303 302 302 300 306 306 305 299 287 271 270 277 275 268 266 255 246 241 243 242 201 179 172 165 151 152 158 159 149 143 146 147 143
311 310 307 303 306 301 307 305 304 302 301 301 299 301 303 303 302 297 297 291 283 282 277 268 264 250 236 236 233 226 203 181 164 155 149 151 152 145 139 140 142 123 125
302 307 309 305 307 306 304 306 303 302 302 303 307 308 308 303 301 300 296 291 282 278 274 270 263 241 238 242 228 200 183 164 154 149 144 146 146 140 138 140 125 127 125
298 307 306 307 309 308 305 307 305 304 305 308 308 308 311 307 306 303 301 298 291 286 281 270 251 244 233 242 211 189 166 160 152 148 148 148 144 138 138 132 132 130 130
306 305 305 307 310 311 308 310 308 308 309 309 309 310 309 309 308 305 306 307 304 300 290 272 250 246 223 190 149 133 138 133 138 147 147 143 139 133 136 131 130 130 123
303 308 310 312 312 311 311 311 311 311 312 312 312 312 312 311 310 309 312 310 309 307 307 298 271 198 182 155 142 137 136 139 140 136 138 133 129 133 134 127 128 123 126
305 311 311 311 312 313 313 313 314 316 317 316 314 314 313 311 313 318 320 318 318 320 326 324 296 159 133 128 129 129 130 131 127 128 127 126 128 130 127 127 126 126 128